When you browse on this site, cookies collect data to enhance your experience and personalize the content and advertising you see.
Visit our Privacy Policy to learn more. By continuing to use the site, you agree to this use of cookies and data.
  • In Lithuania
  • List of Countries
  • For 7 days
  • Water Temperature
  • Satellite Maps
  • Weather Map
  • Weather Widgets
  • user-avatar
    Login

    Hourly Weather Singida

    Today, 19 November, Monday

    Time Temperature Precipitation Wind Pressure Humidity
    00:00 +24°C° 0 mm 3 mps 637 mmHg 54%
    01:00 +22°C° 0 mm 3 mps 637 mmHg 59%
    02:00 +21°C° 0 mm 2 mps 637 mmHg 63%
    03:00 +21°C° 0.3 mm 2 mps 637 mmHg 66%
    04:00 +21°C° 0.3 mm 2 mps 637 mmHg 69%
    05:00 +21°C° 0.3 mm 1 mps 638 mmHg 73%
    06:00 +23°C° 0.1 mm 2 mps 638 mmHg 66%
    07:00 +24°C° 0.1 mm 2 mps 639 mmHg 59%
    08:00 +26°C° 0 mm 2 mps 640 mmHg 53%
    09:00 +28°C° 0.2 mm 2 mps 640 mmHg 47%
    10:00 +29°C° 0.2 mm 2 mps 640 mmHg 41%
    11:00 +31°C° 0.2 mm 1 mps 640 mmHg 35%
    12:00 +31°C° 0 mm 2 mps 639 mmHg 35%
    13:00 +30°C° 0 mm 2 mps 638 mmHg 36%
    14:00 +30°C° 0 mm 2 mps 637 mmHg 36%
    15:00 +30°C° 0 mm 2 mps 637 mmHg 36%
    16:00 +29°C° 0 mm 2 mps 637 mmHg 36%
    17:00 +29°C° 0 mm 2 mps 636 mmHg 36%
    18:00 +28°C° 0 mm 2 mps 637 mmHg 38%
    19:00 +28°C° 0 mm 2 mps 637 mmHg 40%
    20:00 +27°C° 0 mm 2 mps 637 mmHg 42%
    21:00 +26°C° 0 mm 2 mps 638 mmHg 45%
    22:00 +26°C° 0 mm 3 mps 638 mmHg 48%
    23:00 +25°C° 0 mm 3 mps 638 mmHg 51%

    Tomorrow, 20 November, Tuesday

    Time Temperature Precipitation Wind Pressure Humidity
    00:00 +24°C° 0 mm 3 mps 637 mmHg 55%
    01:00 +24°C° 0 mm 3 mps 637 mmHg 60%
    02:00 +22°C° 0 mm 3 mps 637 mmHg 64%
    03:00 +21°C° 0 mm 3 mps 637 mmHg 67%
    04:00 +21°C° 0 mm 3 mps 637 mmHg 69%
    05:00 +20°C° 0 mm 3 mps 637 mmHg 72%
    06:00 +22°C° 0 mm 3 mps 638 mmHg 65%
    07:00 +24°C° 0 mm 3 mps 639 mmHg 59%
    08:00 +25°C° 0 mm 3 mps 639 mmHg 52%
    09:00 +28°C° 0 mm 3 mps 640 mmHg 45%
    10:00 +30°C° 0 mm 3 mps 640 mmHg 38%
    11:00 +33°C° 0 mm 3 mps 640 mmHg 31%
    12:00 +33°C° 0 mm 3 mps 639 mmHg 31%
    13:00 +31°C° 0 mm 3 mps 638 mmHg 31%
    14:00 +31°C° 0 mm 2 mps 637 mmHg 30%
    15:00 +31°C° 0 mm 2 mps 637 mmHg 31%
    16:00 +30°C° 0 mm 2 mps 636 mmHg 33%
    17:00 +30°C° 0 mm 2 mps 636 mmHg 34%
    18:00 +29°C° 0 mm 2 mps 637 mmHg 37%
    19:00 +28°C° 0 mm 2 mps 637 mmHg 40%
    20:00 +27°C° 0 mm 2 mps 637 mmHg 44%
    21:00 +26°C° 0.1 mm 3 mps 637 mmHg 48%
    22:00 +25°C° 0.1 mm 3 mps 638 mmHg 52%
    23:00 +24°C° 0.1 mm 3 mps 638 mmHg 57%

    Day after tomorrow, 21 November, Wednesday

    Time Temperature Precipitation Wind Pressure Humidity
    00:00 +22°C° 0 mm 3 mps 637 mmHg 61%
    01:00 +22°C° 0 mm 3 mps 637 mmHg 66%
    02:00 +21°C° 0 mm 3 mps 636 mmHg 71%
    03:00 +20°C° 0 mm 2 mps 636 mmHg 73%
    04:00 +20°C° 0 mm 2 mps 636 mmHg 75%
    05:00 +20°C° 0 mm 2 mps 636 mmHg 77%
    06:00 +21°C° 0 mm 2 mps 637 mmHg 71%
    07:00 +23°C° 0 mm 2 mps 638 mmHg 65%
    08:00 +25°C° 0 mm 2 mps 639 mmHg 59%
    09:00 +27°C° 0 mm 2 mps 639 mmHg 50%
    10:00 +29°C° 0 mm 2 mps 640 mmHg 42%
    11:00 +32°C° 0 mm 2 mps 640 mmHg 33%
    12:00 +31°C° 0 mm 2 mps 639 mmHg 34%
    13:00 +31°C° 0 mm 2 mps 638 mmHg 34%
    14:00 +30°C° 0 mm 1 mps 637 mmHg 34%
    15:00 +30°C° 0 mm 1 mps 636 mmHg 36%
    16:00 +29°C° 0 mm 2 mps 636 mmHg 39%
    17:00 +28°C° 0 mm 2 mps 636 mmHg 41%
    18:00 +27°C° 0.3 mm 1 mps 636 mmHg 46%
    19:00 +26°C° 0.3 mm 1 mps 637 mmHg 52%
    20:00 +25°C° 0.3 mm 1 mps 637 mmHg 57%
    21:00 +24°C° 0.1 mm 1 mps 638 mmHg 60%
    22:00 +24°C° 0.1 mm 1 mps 638 mmHg 63%
    23:00 +23°C° 0.1 mm 1 mps 638 mmHg 65%

    22 November, Thursday

    Time Temperature Precipitation Wind Pressure Humidity
    00:00 +23°C° 0.3 mm 1 mps 637 mmHg 68%
    01:00 +22°C° 0.3 mm 1 mps 637 mmHg 71%
    02:00 +22°C° 0.3 mm 1 mps 636 mmHg 75%
    03:00 +21°C° 0.3 mm 1 mps 637 mmHg 76%
    04:00 +19°C° 0.3 mm 0 mps 637 mmHg 77%
    05:00 +19°C° 0.3 mm 0 mps 637 mmHg 79%
    06:00 +20°C° 0.2 mm 0 mps 638 mmHg 73%
    07:00 +21°C° 0.2 mm 0 mps 639 mmHg 68%
    08:00 +24°C° 0.2 mm 1 mps 639 mmHg 62%
    09:00 +26°C° 0.1 mm 1 mps 639 mmHg 55%
    10:00 +28°C° 0.1 mm 1 mps 639 mmHg 49%
    11:00 +30°C° 0.1 mm 1 mps 640 mmHg 42%
    12:00 +30°C° 0 mm 1 mps 639 mmHg 42%
    13:00 +29°C° 0 mm 1 mps 637 mmHg 41%
    14:00 +29°C° 0 mm 1 mps 636 mmHg 41%
    15:00 +28°C° 0.2 mm 1 mps 636 mmHg 43%
    16:00 +28°C° 0.2 mm 1 mps 636 mmHg 46%
    17:00 +27°C° 0.2 mm 1 mps 636 mmHg 48%
    18:00 +26°C° 0.6 mm 1 mps 636 mmHg 53%
    19:00 +25°C° 0.6 mm 1 mps 637 mmHg 58%
    20:00 +24°C° 0.6 mm 1 mps 637 mmHg 63%
    21:00 +24°C° 0.4 mm 1 mps 637 mmHg 65%
    22:00 +23°C° 0.4 mm 1 mps 638 mmHg 67%
    23:00 +23°C° 0.4 mm 1 mps 638 mmHg 69%

    23 November, Friday

    Time Temperature Precipitation Wind Pressure Humidity
    00:00 +22°C° 0.6 mm 1 mps 637 mmHg 73%
    01:00 +21°C° 0.6 mm 1 mps 637 mmHg 76%
    02:00 +21°C° 0.6 mm 1 mps 636 mmHg 80%
    03:00 +21°C° 0.5 mm 1 mps 636 mmHg 82%
    04:00 +20°C° 0.5 mm 1 mps 637 mmHg 83%
    05:00 +20°C° 0.5 mm 1 mps 637 mmHg 85%
    06:00 +22°C° 0.7 mm 1 mps 638 mmHg 77%
    07:00 +23°C° 0.7 mm 1 mps 639 mmHg 70%
    08:00 +25°C° 0.7 mm 1 mps 640 mmHg 63%
    09:00 +26°C° 1.2 mm 1 mps 640 mmHg 59%
    10:00 +27°C° 1.2 mm 1 mps 640 mmHg 56%
    11:00 +28°C° 1.2 mm 1 mps 640 mmHg 52%
    12:00 +28°C° 1.4 mm 1 mps 639 mmHg 52%
    13:00 +28°C° 1.4 mm 1 mps 638 mmHg 52%
    14:00 +27°C° 1.4 mm 1 mps 637 mmHg 52%
    15:00 +27°C° 1.1 mm 1 mps 637 mmHg 54%
    16:00 +26°C° 1.1 mm 1 mps 637 mmHg 56%
    17:00 +24°C° 1.1 mm 0 mps 637 mmHg 58%
    18:00 +23°C° 0.6 mm 0 mps 637 mmHg 62%
    19:00 +22°C° 0.6 mm 0 mps 638 mmHg 65%
    20:00 +21°C° 0.6 mm 0 mps 638 mmHg 69%
    21:00 +21°C° 0.4 mm 0 mps 638 mmHg 70%
    22:00 +22°C° 0.4 mm 1 mps 638 mmHg 72%
    23:00 +22°C° 0.4 mm 1 mps 638 mmHg 74%

    24 November, Saturday

    Time Temperature Precipitation Wind Pressure Humidity
    00:00 +21°C° 0.1 mm 1 mps 637 mmHg 76%
    01:00 +21°C° 0.1 mm 1 mps 637 mmHg 78%
    02:00 +21°C° 0.1 mm 1 mps 637 mmHg 80%
    03:00 +20°C° 0.2 mm 1 mps 637 mmHg 81%
    04:00 +20°C° 0.2 mm 1 mps 637 mmHg 81%
    05:00 +20°C° 0.2 mm 1 mps 638 mmHg 82%
    06:00 +20°C° 0 mm 2 mps 638 mmHg 75%
    07:00 +23°C° 0 mm 2 mps 639 mmHg 69%
    08:00 +24°C° 0 mm 2 mps 640 mmHg 62%
    09:00 +26°C° 0 mm 2 mps 640 mmHg 54%
    10:00 +28°C° 0 mm 3 mps 640 mmHg 46%
    11:00 +30°C° 0 mm 3 mps 640 mmHg 39%
    12:00 +29°C° 0 mm 2 mps 639 mmHg 39%
    13:00 +29°C° 0 mm 2 mps 638 mmHg 39%
    14:00 +29°C° 0 mm 2 mps 637 mmHg 40%
    15:00 +28°C° 0 mm 2 mps 637 mmHg 41%
    16:00 +28°C° 0 mm 2 mps 637 mmHg 42%
    17:00 +28°C° 0 mm 2 mps 637 mmHg 43%
    18:00 +27°C° 0 mm 2 mps 637 mmHg 47%
    19:00 +26°C° 0 mm 2 mps 637 mmHg 50%
    20:00 +25°C° 0 mm 2 mps 638 mmHg 53%
    21:00 +24°C° 0 mm 2 mps 637 mmHg 56%
    22:00 +23°C° 0 mm 2 mps 637 mmHg 59%
    23:00 +22°C° 0 mm 3 mps 637 mmHg 62%
    Show more